Find Starlink 6085

NORAD ID: 57115 Int'l Des: 2023-090 Owner: SPXS Country: US Constellation: starlink operational
LEOCIRCULAR

リアルタイム位置

3D地球を読み込み中...

Starlink 6085について

説明を読み込み中...

次回通過

Passes for default location (London). Set your location on the main map for personalized predictions.

高度履歴

Loading altitude history...

軌道要素

1 57115U 23090Q 26121.30974747 .00011855 00000-0 62876-3 0 9998
2 57115 42.9999 332.2061 0019828 185.6632 174.3993 15.15175698158524
Epoch: May 1, 2026 • Age: 9 hours

現在のステータス

高度 534.4 km
速度 7.59 km/s
衛星直下点 -7.39°S, 150.75°W
打ち上げ日 Jun 23, 2023
運用期間 2.8 years
タイプ internet

技術仕様

分類 Payload
質量 305.00 kg
乾燥質量 290.00 kg
総質量 305.00 kg
長さ 0.20 m
直径 2.80 m
スパン 9.00 m
形状 Box + pan
製造者 SPXS
バスタイプ Starlink
フェーズステータス In Orbit
所有者/国 SPXS/US

Most Searched